User: anonymous   Login
Location: Unspecified
(0.0000°N, 0.0000°E)
Time: 05:34:03
(UTC+01:00)
Language:

Cosmos 2251 - Orbit

View from above orbital plane
View from above orbital plane
View from above satellite
View from above satellite

Ground track
Ground track

The orbit data is extracted from the following two-line orbital elements,

1 22675U 93036A   17054.59378017  .00000017  00000-0  15898-4 0  9993
2 22675  74.0379  63.4122 0025754 212.4686 147.4882 14.32493319237762
Epoch (UTC): 23 February 2017 14:15:02
Eccentricity: 0.0025754
inclination: 74.0379°
perigee height: 765 km
apogee height: 802 km
right ascension of ascending node: 63.4122°
argument of perigee: 212.4686°
revolutions per day: 14.32493319
mean anomaly at epoch: 147.4882°
orbit number at epoch: 23776

The dashed part of the orbit path shows where the satellite is in the earth's shadow,  

DLR